Location: Napa Junction
(38.1874°N, 122.2508°W)
Time: 17:32:47
(UTC+00:00)

Cosmos 1602 Rocket - Visible Passes

Search period start: 03 December 2024 00:00
Search period end: 13 December 2024 00:00
Orbit: 598 x 628 km, 82.5° (Epoch: 03 December)

Date Brightness Start Highest point End Pass type
(mag) Time Alt. Az. Time Alt. Az. Time Alt. Az.
03 Dec 3.6 01:10:10 10° N 01:14:32 58° E 01:18:53 10° SSE visible
03 Dec 7.0 02:50:55 10° WNW 02:51:41 10° W 02:52:26 10° W visible
03 Dec 5.0 13:39:02 10° SSE 13:42:59 38° E 13:46:59 10° NNE visible
04 Dec 3.8 01:25:38 10° N 01:30:02 75° W 01:34:27 10° S visible
04 Dec 3.7 13:54:10 10° S 13:58:26 74° E 14:02:44 10° N visible
05 Dec 5.1 01:41:22 10° NNW 01:45:29 39° W 01:49:36 10° SSW visible
05 Dec 3.5 14:09:43 10° SSW 14:13:56 58° W 14:18:11 10° N visible
06 Dec 6.3 01:57:27 10° NW 02:00:50 22° W 02:04:14 10° SW visible
06 Dec 6.3 12:49:05 10° SE 12:52:03 18° E 12:55:02 10° NE visible
06 Dec 4.2 14:25:43 10° SW 14:29:31 31° WNW 14:33:22 10° NNW visible
07 Dec 6.8 02:14:24 10° WNW 02:16:07 12° W 02:17:50 10° WSW visible
07 Dec 5.2 13:03:32 10° SSE 13:07:22 33° E 13:11:16 10° NNE visible
07 Dec 4.9 14:42:18 10° WSW 14:45:12 18° WNW 14:48:08 10° NNW visible
08 Dec 3.9 13:18:32 10° S 13:22:46 64° E 13:27:04 10° NNE visible
09 Dec 3.4 13:34:00 10° SSW 13:38:15 67° W 13:42:34 10° N visible
10 Dec 6.1 01:21:38 10° NW 01:25:14 25° W 01:28:50 10° SW visible
10 Dec 6.3 12:13:45 10° SE 12:16:26 16° E 12:19:07 10° NE visible
10 Dec 4.0 13:49:52 10° SW 13:53:49 35° WNW 13:57:49 10° N visible
11 Dec 6.6 01:38:15 10° NW 01:40:31 14° W 01:42:47 10° WSW visible
11 Dec 5.4 12:28:00 10° SSE 12:31:43 29° E 12:35:29 10° NNE visible
11 Dec 4.8 14:06:17 10° WSW 14:09:28 20° WNW 14:12:41 10° NNW visible
12 Dec 6.1 12:42:54 10° S 12:52:21 - NNE 12:43:15 12° S visible
